Time,TemperatureF,DewpointF,PressureIn,WindDirection,WindDirectionDegrees,WindSpeedMPH,WindSpeedGustMPH,Humidity,HourlyPrecipIn,Conditions,Clouds,dailyrainin,SoftwareType,DateUTC
2013-07-04 00:00:00,71.7,55.7,29.77,ENE,62,0.0,0.0,57,0.00,,,0.00,Wunderground v.1.15,2013-07-04 07:00:00,
2013-07-04 00:05:00,71.4,55.9,29.76,ENE,62,0.0,0.0,58,0.00,,,0.00,Wunderground v.1.15,2013-07-04 07:05:00,
2013-07-04 00:10:00,71.3,56.2,29.76,ENE,62,0.0,0.0,59,0.00,,,0.00,Wunderground v.1.15,2013-07-04 07:10:00,
2013-07-04 00:15:00,71.1,56.0,29.76,ENE,62,0.0,0.0,59,0.00,,,0.00,Wunderground v.1.15,2013-07-04 07:15:00,
2013-07-04 00:20:00,70.8,56.2,29.76,ENE,62,0.0,0.0,60,0.00,,,0.00,Wunderground v.1.15,2013-07-04 07:20:00,
2013-07-04 00:25:00,70.6,56.0,29.76,ENE,62,0.0,0.0,60,0.00,,,0.00,Wunderground v.1.15,2013-07-04 07:25:00,
2013-07-04 00:30:00,70.7,56.1,29.76,ENE,62,0.0,0.0,60,0.00,,,0.00,Wunderground v.1.15,2013-07-04 07:30:00,
2013-07-04 00:40:00,70.4,56.3,29.76,ENE,62,0.0,0.0,61,0.00,,,0.00,Wunderground v.1.15,2013-07-04 07:40:00,
2013-07-04 00:45:00,70.2,56.1,29.76,ENE,62,0.0,0.0,61,0.00,,,0.00,Wunderground v.1.15,2013-07-04 07:45:00,
2013-07-04 00:50:00,70.0,56.4,29.76,ENE,62,0.0,0.0,62,0.00,,,0.00,Wunderground v.1.15,2013-07-04 07:50:00,
2013-07-04 00:55:00,69.9,56.7,29.76,ENE,62,0.0,0.0,63,0.00,,,0.00,Wunderground v.1.15,2013-07-04 07:55:00,
2013-07-04 01:00:00,69.9,56.7,29.76,ENE,62,0.0,0.0,63,0.00,,,0.00,Wunderground v.1.15,2013-07-04 08:00:00,
2013-07-04 01:05:00,69.9,56.7,29.76,ENE,62,0.0,1.0,63,0.00,,,0.00,Wunderground v.1.15,2013-07-04 08:05:00,
2013-07-04 01:15:00,69.5,56.3,29.77,ENE,62,0.0,0.0,63,0.00,,,0.00,Wunderground v.1.15,2013-07-04 08:15:00,
2013-07-04 01:20:00,69.3,56.2,29.77,ENE,62,0.0,0.0,63,0.00,,,0.00,Wunderground v.1.15,2013-07-04 08:20:00,
2013-07-04 01:25:00,69.2,56.5,29.77,ENE,62,0.0,0.0,64,0.00,,,0.00,Wunderground v.1.15,2013-07-04 08:25:00,
2013-07-04 01:30:00,69.0,56.3,29.77,ENE,62,0.0,0.0,64,0.00,,,0.00,Wunderground v.1.15,2013-07-04 08:30:00,
2013-07-04 01:35:00,68.8,56.6,29.76,ENE,62,0.0,0.0,65,0.00,,,0.00,Wunderground v.1.15,2013-07-04 08:35:00,
2013-07-04 01:40:00,68.6,56.4,29.76,ENE,62,0.0,0.0,65,0.00,,,0.00,Wunderground v.1.15,2013-07-04 08:40:00,
2013-07-04 01:45:00,68.4,56.6,29.76,ENE,62,0.0,0.0,66,0.00,,,0.00,Wunderground v.1.15,2013-07-04 08:45:00,
2013-07-04 01:50:00,68.2,56.4,29.76,ENE,62,0.0,0.0,66,0.00,,,0.00,Wunderground v.1.15,2013-07-04 08:50:00,
2013-07-04 01:55:00,68.0,56.6,29.77,ENE,62,0.0,0.0,67,0.00,,,0.00,Wunderground v.1.15,2013-07-04 08:55:00,
2013-07-04 02:05:00,67.7,56.3,29.76,ENE,62,0.0,0.0,67,0.00,,,0.00,Wunderground v.1.15,2013-07-04 09:05:00,
2013-07-04 02:10:00,67.6,56.7,29.76,ENE,62,0.0,0.0,68,0.00,,,0.00,Wunderground v.1.15,2013-07-04 09:10:00,
2013-07-04 02:15:00,67.6,56.7,29.76,ENE,62,0.0,0.0,68,0.00,,,0.00,Wunderground v.1.15,2013-07-04 09:15:00,
2013-07-04 02:20:00,67.4,56.5,29.76,ENE,62,0.0,0.0,68,0.00,,,0.00,Wunderground v.1.15,2013-07-04 09:20:00,
2013-07-04 02:25:00,67.4,56.9,29.75,ENE,62,0.0,0.0,69,0.00,,,0.00,Wunderground v.1.15,2013-07-04 09:25:00,
2013-07-04 02:35:00,67.4,56.9,29.75,ENE,62,0.0,0.0,69,0.00,,,0.00,Wunderground v.1.15,2013-07-04 09:35:00,
2013-07-04 02:40:00,67.3,56.8,29.75,ENE,62,0.0,0.0,69,0.00,,,0.00,Wunderground v.1.15,2013-07-04 09:40:00,
2013-07-04 02:45:00,67.5,57.4,29.75,ENE,62,0.0,0.0,70,0.00,,,0.00,Wunderground v.1.15,2013-07-04 09:45:00,
2013-07-04 02:50:00,67.7,57.2,29.75,ENE,62,0.0,0.0,69,0.00,,,0.00,Wunderground v.1.15,2013-07-04 09:50:00,
2013-07-04 03:00:00,67.8,57.3,29.75,ENE,62,0.0,0.0,69,0.00,,,0.00,Wunderground v.1.15,2013-07-04 10:00:00,
2013-07-04 03:05:00,67.9,57.4,29.75,ENE,62,0.0,0.0,69,0.00,,,0.00,Wunderground v.1.15,2013-07-04 10:05:00,
2013-07-04 03:10:00,68.1,57.5,29.75,ENE,62,0.0,0.0,69,0.00,,,0.00,Wunderground v.1.15,2013-07-04 10:10:00,
2013-07-04 03:15:00,68.2,57.6,29.75,ENE,62,0.0,0.0,69,0.00,,,0.00,Wunderground v.1.15,2013-07-04 10:15:00,
2013-07-04 03:20:00,68.1,57.5,29.74,ENE,62,0.0,0.0,69,0.00,,,0.00,Wunderground v.1.15,2013-07-04 10:20:00,
2013-07-04 03:25:00,68.2,57.6,29.75,ENE,62,0.0,0.0,69,0.00,,,0.00,Wunderground v.1.15,2013-07-04 10:25:00,
2013-07-04 03:30:00,68.7,58.1,29.74,ENE,62,0.0,0.0,69,0.00,,,0.00,Wunderground v.1.15,2013-07-04 10:30:00,
2013-07-04 03:40:00,70.1,58.6,29.74,ENE,62,0.0,1.0,67,0.00,,,0.00,Wunderground v.1.15,2013-07-04 10:40:00,
2013-07-04 03:45:00,70.6,58.3,29.74,ENE,62,0.0,1.0,65,0.00,,,0.00,Wunderground v.1.15,2013-07-04 10:45:00,
2013-07-04 03:50:00,70.7,58.4,29.75,ENE,61,0.0,0.0,65,0.00,,,0.00,Wunderground v.1.15,2013-07-04 10:50:00,
2013-07-04 04:00:00,70.7,58.4,29.75,ENE,61,0.0,0.0,65,0.00,,,0.00,Wunderground v.1.15,2013-07-04 11:00:00,
2013-07-04 04:05:00,70.4,57.6,29.75,ENE,61,0.0,0.0,64,0.00,,,0.00,Wunderground v.1.15,2013-07-04 11:05:00,
2013-07-04 04:10:00,70.1,57.8,29.75,ENE,61,0.0,0.0,65,0.00,,,0.00,Wunderground v.1.15,2013-07-04 11:10:00,
2013-07-04 04:15:00,69.6,57.7,29.75,ENE,61,0.0,0.0,66,0.00,,,0.00,Wunderground v.1.15,2013-07-04 11:15:00,
2013-07-04 04:20:00,69.4,58.0,29.75,ENE,61,0.0,0.0,67,0.00,,,0.00,Wunderground v.1.15,2013-07-04 11:20:00,
2013-07-04 04:25:00,69.1,57.7,29.75,ENE,61,0.0,0.0,67,0.00,,,0.00,Wunderground v.1.15,2013-07-04 11:25:00,
2013-07-04 04:35:00,68.7,57.7,29.74,ENE,61,0.0,0.0,68,0.00,,,0.00,Wunderground v.1.15,2013-07-04 11:35:00,
2013-07-04 04:40:00,68.5,57.9,29.74,ENE,61,0.0,0.0,69,0.00,,,0.00,Wunderground v.1.15,2013-07-04 11:40:00,
2013-07-04 04:45:00,68.6,58.0,29.74,ENE,61,0.0,0.0,69,0.00,,,0.00,Wunderground v.1.15,2013-07-04 11:45:00,
2013-07-04 04:55:00,68.5,57.9,29.74,ENE,61,0.0,0.0,69,0.00,,,0.00,Wunderground v.1.15,2013-07-04 11:55:00,
2013-07-04 05:00:00,68.6,57.6,29.74,ENE,61,0.0,0.0,68,0.00,,,0.00,Wunderground v.1.15,2013-07-04 12:00:00,
2013-07-04 05:05:00,68.7,57.3,29.73,ENE,61,0.0,0.0,67,0.00,,,0.00,Wunderground v.1.15,2013-07-04 12:05:00,
2013-07-04 05:10:00,68.9,57.5,29.73,ENE,61,0.0,0.0,67,0.00,,,0.00,Wunderground v.1.15,2013-07-04 12:10:00,
2013-07-04 05:15:00,68.9,57.5,29.74,ENE,61,0.0,0.0,67,0.00,,,0.00,Wunderground v.1.15,2013-07-04 12:15:00,
2013-07-04 05:20:00,68.9,57.1,29.73,ENE,61,0.0,0.0,66,0.00,,,0.00,Wunderground v.1.15,2013-07-04 12:20:00,
2013-07-04 05:30:00,69.2,57.4,29.74,ENE,61,0.0,0.0,66,0.00,,,0.00,Wunderground v.1.15,2013-07-04 12:30:00,
2013-07-04 05:35:00,69.5,57.2,29.74,ENE,61,0.0,0.0,65,0.00,,,0.00,Wunderground v.1.15,2013-07-04 12:35:00,
2013-07-04 05:40:00,69.6,57.3,29.74,ENE,61,0.0,0.0,65,0.00,,,0.00,Wunderground v.1.15,2013-07-04 12:40:00,
2013-07-04 05:45:00,69.7,57.4,29.74,ENE,61,0.0,0.0,65,0.00,,,0.00,Wunderground v.1.15,2013-07-04 12:45:00,
2013-07-04 05:50:00,69.8,57.5,29.74,ENE,61,0.0,0.0,65,0.00,,,0.00,Wunderground v.1.15,2013-07-04 12:50:00,
2013-07-04 06:00:00,70.4,57.6,29.74,ENE,61,0.0,0.0,64,0.00,,,0.00,Wunderground v.1.15,2013-07-04 13:00:00,
2013-07-04 06:05:00,70.2,57.4,29.74,ENE,61,0.0,0.0,64,0.00,,,0.00,Wunderground v.1.15,2013-07-04 13:05:00,
2013-07-04 06:15:00,70.6,57.8,29.74,ENE,61,1.0,2.0,64,0.00,,,0.00,Wunderground v.1.15,2013-07-04 13:15:00,
2013-07-04 06:20:00,70.8,57.6,29.74,NW,310,1.0,1.0,63,0.00,,,0.00,Wunderground v.1.15,2013-07-04 13:20:00,
2013-07-04 06:25:00,70.8,57.6,29.74,NW,309,1.0,1.0,63,0.00,,,0.00,Wunderground v.1.15,2013-07-04 13:25:00,
2013-07-04 06:35:00,70.7,57.9,29.74,NW,309,0.0,0.0,64,0.00,,,0.00,Wunderground v.1.15,2013-07-04 13:35:00,
2013-07-04 06:40:00,70.6,57.8,29.74,NW,309,0.0,0.0,64,0.00,,,0.00,Wunderground v.1.15,2013-07-04 13:40:00,
2013-07-04 06:45:00,70.4,57.6,29.74,NW,309,0.0,0.0,64,0.00,,,0.00,Wunderground v.1.15,2013-07-04 13:45:00,
2013-07-04 06:55:00,70.3,58.4,29.75,NW,309,0.0,0.0,66,0.00,,,0.00,Wunderground v.1.15,2013-07-04 13:55:00,
2013-07-04 07:00:00,70.3,58.4,29.75,NW,309,0.0,0.0,66,0.00,,,0.00,Wunderground v.1.15,2013-07-04 14:00:00,
2013-07-04 07:05:00,70.6,58.7,29.75,NW,309,0.0,0.0,66,0.00,,,0.00,Wunderground v.1.15,2013-07-04 14:05:00,
2013-07-04 07:15:00,71.7,59.3,29.74,NW,309,0.0,0.0,65,0.00,,,0.00,Wunderground v.1.15,2013-07-04 14:15:00,
2013-07-04 07:20:00,72.2,58.9,29.74,NW,309,0.0,0.0,63,0.00,,,0.00,Wunderground v.1.15,2013-07-04 14:20:00,
2013-07-04 07:25:00,72.6,59.7,29.74,NW,309,0.0,0.0,64,0.00,,,0.00,Wunderground v.1.15,2013-07-04 14:25:00,
2013-07-04 07:35:00,73.1,60.2,29.74,NW,309,0.0,0.0,64,0.00,,,0.00,Wunderground v.1.15,2013-07-04 14:35:00,
2013-07-04 07:40:00,73.2,60.7,29.74,NW,309,0.0,0.0,65,0.00,,,0.00,Wunderground v.1.15,2013-07-04 14:40:00,
2013-07-04 07:45:00,73.6,60.7,29.74,NW,309,0.0,0.0,64,0.00,,,0.00,Wunderground v.1.15,2013-07-04 14:45:00,
2013-07-04 07:50:00,74.3,62.2,29.74,NW,309,0.0,0.0,66,0.00,,,0.00,Wunderground v.1.15,2013-07-04 14:50:00,
2013-07-04 07:55:00,74.6,61.2,29.74,NW,318,0.0,0.0,63,0.00,,,0.00,Wunderground v.1.15,2013-07-04 14:55:00,
2013-07-04 08:00:00,74.5,60.6,29.75,North,351,0.0,0.0,62,0.00,,,0.00,Wunderground v.1.15,2013-07-04 15:00:00,
2013-07-04 08:05:00,74.6,61.2,29.75,North,351,0.0,0.0,63,0.00,,,0.00,Wunderground v.1.15,2013-07-04 15:05:00,
2013-07-04 08:15:00,75.2,61.3,29.75,North,351,0.0,0.0,62,0.00,,,0.00,Wunderground v.1.15,2013-07-04 15:15:00,
2013-07-04 08:20:00,75.5,61.1,29.76,NNW,346,0.0,0.0,61,0.00,,,0.00,Wunderground v.1.15,2013-07-04 15:20:00,
2013-07-04 08:25:00,75.8,61.4,29.76,NNW,341,0.0,0.0,61,0.00,,,0.00,Wunderground v.1.15,2013-07-04 15:25:00,
2013-07-04 08:30:00,76.0,61.6,29.76,WSW,255,0.0,0.0,61,0.00,,,0.00,Wunderground v.1.15,2013-07-04 15:30:00,
2013-07-04 08:35:00,75.9,61.5,29.76,WSW,255,0.0,2.0,61,0.00,,,0.00,Wunderground v.1.15,2013-07-04 15:35:00,
2013-07-04 08:40:00,76.0,61.1,29.77,West,263,0.0,0.0,60,0.00,,,0.00,Wunderground v.1.15,2013-07-04 15:40:00,
2013-07-04 08:50:00,75.8,61.4,29.77,WNW,288,0.0,0.0,61,0.00,,,0.00,Wunderground v.1.15,2013-07-04 15:50:00,
2013-07-04 08:55:00,75.9,61.5,29.76,WNW,288,0.0,0.0,61,0.00,,,0.00,Wunderground v.1.15,2013-07-04 15:55:00,
2013-07-04 09:00:00,75.9,61.9,29.76,WNW,288,0.0,0.0,62,0.00,,,0.00,Wunderground v.1.15,2013-07-04 16:00:00,
2013-07-04 09:05:00,75.8,61.8,29.76,WNW,288,0.0,0.0,62,0.00,,,0.00,Wunderground v.1.15,2013-07-04 16:05:00,
2013-07-04 09:15:00,75.8,62.8,29.76,WNW,288,0.0,0.0,64,0.00,,,0.00,Wunderground v.1.15,2013-07-04 16:15:00,
2013-07-04 09:20:00,75.8,62.8,29.75,WNW,288,0.0,0.0,64,0.00,,,0.00,Wunderground v.1.15,2013-07-04 16:20:00,
2013-07-04 09:25:00,76.4,62.0,29.75,WNW,288,0.0,0.0,61,0.00,,,0.00,Wunderground v.1.15,2013-07-04 16:25:00,
2013-07-04 09:30:00,77.5,62.5,29.75,SSE,160,0.0,1.0,60,0.00,,,0.00,Wunderground v.1.15,2013-07-04 16:30:00,
2013-07-04 09:35:00,77.9,62.4,29.75,SE,138,0.0,1.0,59,0.00,,,0.00,Wunderground v.1.15,2013-07-04 16:35:00,
2013-07-04 09:40:00,78.5,63.0,29.75,ESE,114,1.0,1.0,59,0.00,,,0.00,Wunderground v.1.15,2013-07-04 16:40:00,
2013-07-04 09:45:00,79.1,61.5,29.76,SE,142,1.0,1.0,55,0.00,,,0.00,Wunderground v.1.15,2013-07-04 16:45:00,
2013-07-04 09:55:00,80.0,61.3,29.75,SSE,155,1.0,5.0,53,0.00,,,0.00,Wunderground v.1.15,2013-07-04 16:55:00,
2013-07-04 10:00:00,80.4,62.2,29.75,SSE,155,1.0,1.0,54,0.00,,,0.00,Wunderground v.1.15,2013-07-04 17:00:00,
2013-07-04 10:05:00,81.0,62.3,29.75,SSE,156,1.0,1.0,53,0.00,,,0.00,Wunderground v.1.15,2013-07-04 17:05:00,
2013-07-04 10:10:00,81.4,63.2,29.75,SE,140,1.0,1.0,54,0.00,,,0.00,Wunderground v.1.15,2013-07-04 17:10:00,
2013-07-04 10:20:00,83.0,61.9,29.75,SE,143,0.0,0.0,49,0.00,,,0.00,Wunderground v.1.15,2013-07-04 17:20:00,
2013-07-04 10:25:00,84.1,62.3,29.75,SE,143,0.0,0.0,48,0.00,,,0.00,Wunderground v.1.15,2013-07-04 17:25:00,
2013-07-04 10:35:00,85.7,61.3,29.76,SE,146,0.0,1.0,44,0.00,,,0.00,Wunderground v.1.15,2013-07-04 17:35:00,
2013-07-04 10:40:00,85.5,61.7,29.76,SSE,147,1.0,1.0,45,0.00,,,0.00,Wunderground v.1.15,2013-07-04 17:40:00,
2013-07-04 10:45:00,86.0,62.2,29.76,SSE,161,1.0,1.0,45,0.00,,,0.00,Wunderground v.1.15,2013-07-04 17:45:00,
2013-07-04 10:55:00,86.3,61.8,29.76,WSW,247,1.0,1.0,44,0.00,,,0.00,Wunderground v.1.15,2013-07-04 17:55:00,
2013-07-04 11:00:00,86.9,62.4,29.76,NW,315,1.0,1.0,44,0.00,,,0.00,Wunderground v.1.15,2013-07-04 18:00:00,
2013-07-04 11:05:00,87.9,62.6,29.76,WNW,282,1.0,1.0,43,0.00,,,0.00,Wunderground v.1.15,2013-07-04 18:05:00,
2013-07-04 11:10:00,88.3,63.6,29.76,WSW,248,1.0,1.0,44,0.00,,,0.00,Wunderground v.1.15,2013-07-04 18:10:00,
2013-07-04 11:15:00,88.3,63.6,29.76,West,261,2.0,2.0,44,0.00,,,0.00,Wunderground v.1.15,2013-07-04 18:15:00,
2013-07-04 11:20:00,88.0,63.4,29.76,NNW,340,2.0,2.0,44,0.00,,,0.00,Wunderground v.1.15,2013-07-04 18:20:00,
2013-07-04 11:30:00,89.0,62.2,29.76,WNW,298,1.0,3.0,41,0.00,,,0.00,Wunderground v.1.15,2013-07-04 18:30:00,
2013-07-04 11:35:00,89.5,59.8,29.76,West,269,1.0,4.0,37,0.00,,,0.00,Wunderground v.1.15,2013-07-04 18:35:00,
2013-07-04 11:40:00,89.8,60.8,29.76,NW,309,2.0,2.0,38,0.00,,,0.00,Wunderground v.1.15,2013-07-04 18:40:00,
2013-07-04 11:50:00,89.9,59.4,29.76,NW,315,2.0,2.0,36,0.00,,,0.00,Wunderground v.1.15,2013-07-04 18:50:00,
2013-07-04 11:55:00,90.1,59.5,29.76,NNW,327,2.0,2.0,36,0.00,,,0.00,Wunderground v.1.15,2013-07-04 18:55:00,
2013-07-04 12:00:00,90.4,59.8,29.76,WNW,282,1.0,1.0,36,0.00,,,0.00,Wunderground v.1.15,2013-07-04 19:00:00,
2013-07-04 12:10:00,89.7,60.0,29.76,NNE,13,2.0,2.0,37,0.00,,,0.00,Wunderground v.1.15,2013-07-04 19:10:00,
2013-07-04 12:15:00,89.8,60.1,29.76,West,266,2.0,2.0,37,0.00,,,0.00,Wunderground v.1.15,2013-07-04 19:15:00,
2013-07-04 12:20:00,89.8,60.1,29.76,NW,322,2.0,2.0,37,0.00,,,0.00,Wunderground v.1.15,2013-07-04 19:20:00,
2013-07-04 12:25:00,90.2,60.4,29.76,NNE,14,3.0,3.0,37,0.00,,,0.00,Wunderground v.1.15,2013-07-04 19:25:00,
2013-07-04 12:35:00,90.2,60.4,29.76,NW,317,3.0,3.0,37,0.00,,,0.00,Wunderground v.1.15,2013-07-04 19:35:00,
2013-07-04 12:40:00,90.3,59.7,29.76,NNW,345,3.0,4.0,36,0.00,,,0.00,Wunderground v.1.15,2013-07-04 19:40:00,
2013-07-04 12:45:00,91.1,59.6,29.75,NW,317,2.0,6.0,35,0.00,,,0.00,Wunderground v.1.15,2013-07-04 19:45:00,
2013-07-04 12:55:00,90.9,59.5,29.75,WNW,284,4.0,7.0,35,0.00,,,0.00,Wunderground v.1.15,2013-07-04 19:55:00,
2013-07-04 13:00:00,91.0,60.3,29.75,WNW,284,4.0,4.0,36,0.00,,,0.00,Wunderground v.1.15,2013-07-04 20:00:00,
2013-07-04 13:05:00,91.6,60.1,29.75,SW,218,3.0,4.0,35,0.00,,,0.00,Wunderground v.1.15,2013-07-04 20:05:00,
2013-07-04 13:10:00,92.3,60.7,29.75,WSW,250,2.0,2.0,35,0.00,,,0.00,Wunderground v.1.15,2013-07-04 20:10:00,
2013-07-04 13:15:00,93.1,61.4,29.75,SSE,163,2.0,2.0,35,0.00,,,0.00,Wunderground v.1.15,2013-07-04 20:15:00,
2013-07-04 13:25:00,94.7,61.1,29.75,SW,229,2.0,2.0,33,0.00,,,0.00,Wunderground v.1.15,2013-07-04 20:25:00,
2013-07-04 13:30:00,95.4,60.9,29.74,West,274,2.0,2.0,32,0.00,,,0.00,Wunderground v.1.15,2013-07-04 20:30:00,
2013-07-04 13:40:00,95.1,61.5,29.74,North,355,3.0,3.0,33,0.00,,,0.00,Wunderground v.1.15,2013-07-04 20:40:00,
2013-07-04 13:45:00,95.6,61.0,29.74,WNW,290,2.0,3.0,32,0.00,,,0.00,Wunderground v.1.15,2013-07-04 20:45:00,
2013-07-04 13:50:00,95.3,61.6,29.74,WSW,256,2.0,4.0,33,0.00,,,0.00,Wunderground v.1.15,2013-07-04 20:50:00,
2013-07-04 13:55:00,94.9,61.3,29.73,WNW,284,4.0,4.0,33,0.00,,,0.00,Wunderground v.1.15,2013-07-04 20:55:00,
2013-07-04 14:05:00,94.1,60.6,29.73,WSW,252,4.0,8.0,33,0.00,,,0.00,Wunderground v.1.15,2013-07-04 21:05:00,
2013-07-04 14:10:00,94.8,61.2,29.73,West,262,3.0,3.0,33,0.00,,,0.00,Wunderground v.1.15,2013-07-04 21:10:00,
2013-07-04 14:20:00,95.5,61.0,29.73,WSW,254,3.0,3.0,32,0.00,,,0.00,Wunderground v.1.15,2013-07-04 21:20:00,
2013-07-04 14:25:00,96.1,61.5,29.72,North,5,2.0,3.0,32,0.00,,,0.00,Wunderground v.1.15,2013-07-04 21:25:00,
2013-07-04 14:30:00,96.8,61.2,29.72,WNW,291,1.0,1.0,31,0.00,,,0.00,Wunderground v.1.15,2013-07-04 21:30:00,
2013-07-04 14:35:00,97.2,61.5,29.72,WSW,244,1.0,2.0,31,0.00,,,0.00,Wunderground v.1.15,2013-07-04 21:35:00,
2013-07-04 14:40:00,97.8,61.1,29.72,SSE,161,1.0,1.0,30,0.00,,,0.00,Wunderground v.1.15,2013-07-04 21:40:00,
2013-07-04 14:45:00,98.1,61.4,29.71,South,175,2.0,4.0,30,0.00,,,0.00,Wunderground v.1.15,2013-07-04 21:45:00,
2013-07-04 14:50:00,98.5,60.8,29.71,South,186,2.0,2.0,29,0.00,,,0.00,Wunderground v.1.15,2013-07-04 21:50:00,
2013-07-04 14:55:00,98.9,61.1,29.71,WNW,300,1.0,5.0,29,0.00,,,0.00,Wunderground v.1.15,2013-07-04 21:55:00,
2013-07-04 15:00:00,98.3,61.5,29.71,North,350,2.0,2.0,30,0.00,,,0.00,Wunderground v.1.15,2013-07-04 22:00:00,
2013-07-04 15:10:00,98.0,62.2,29.70,North,355,2.0,6.0,31,0.00,,,0.00,Wunderground v.1.15,2013-07-04 22:10:00,
2013-07-04 15:15:00,98.5,61.7,29.70,West,267,1.0,6.0,30,0.00,,,0.00,Wunderground v.1.15,2013-07-04 22:15:00,
2013-07-04 15:20:00,98.9,62.1,29.70,SSW,192,1.0,2.0,30,0.00,,,0.00,Wunderground v.1.15,2013-07-04 22:20:00,
2013-07-04 15:30:00,99.1,61.3,29.70,WSW,244,1.0,1.0,29,0.00,,,0.00,Wunderground v.1.15,2013-07-04 22:30:00,
2013-07-04 15:35:00,99.2,61.4,29.70,West,264,1.0,1.0,29,0.00,,,0.00,Wunderground v.1.15,2013-07-04 22:35:00,
2013-07-04 15:40:00,98.7,60.9,29.70,West,273,1.0,1.0,29,0.00,,,0.00,Wunderground v.1.15,2013-07-04 22:40:00,
2013-07-04 15:45:00,98.1,61.4,29.69,West,269,1.0,1.0,30,0.00,,,0.00,Wunderground v.1.15,2013-07-04 22:45:00,
2013-07-04 15:50:00,97.7,61.0,29.70,West,259,1.0,1.0,30,0.00,,,0.00,Wunderground v.1.15,2013-07-04 22:50:00,
2013-07-04 15:55:00,96.9,61.3,29.69,West,275,1.0,2.0,31,0.00,,,0.00,Wunderground v.1.15,2013-07-04 22:55:00,
2013-07-04 16:00:00,96.6,61.0,29.69,NNW,343,1.0,1.0,31,0.00,,,0.00,Wunderground v.1.15,2013-07-04 23:00:00,
2013-07-04 16:10:00,96.8,61.2,29.69,NNW,332,1.0,1.0,31,0.00,,,0.00,Wunderground v.1.15,2013-07-04 23:10:00,
2013-07-04 16:15:00,97.0,61.4,29.69,West,271,1.0,1.0,31,0.00,,,0.00,Wunderground v.1.15,2013-07-04 23:15:00,
2013-07-04 16:20:00,97.0,61.4,29.68,West,263,1.0,1.0,31,0.00,,,0.00,Wunderground v.1.15,2013-07-04 23:20:00,
2013-07-04 16:25:00,97.2,61.5,29.68,West,262,0.0,1.0,31,0.00,,,0.00,Wunderground v.1.15,2013-07-04 23:25:00,
2013-07-04 16:30:00,97.6,61.9,29.68,West,263,0.0,0.0,31,0.00,,,0.00,Wunderground v.1.15,2013-07-04 23:30:00,
2013-07-04 16:40:00,97.8,61.1,29.68,WSW,254,1.0,2.0,30,0.00,,,0.00,Wunderground v.1.15,2013-07-04 23:40:00,
2013-07-04 16:45:00,97.1,61.4,29.68,WSW,255,1.0,2.0,31,0.00,,,0.00,Wunderground v.1.15,2013-07-04 23:45:00,
2013-07-04 16:50:00,97.0,61.4,29.68,WSW,255,1.0,1.0,31,0.00,,,0.00,Wunderground v.1.15,2013-07-04 23:50:00,
2013-07-04 16:55:00,96.5,60.0,29.68,NW,306,1.0,1.0,30,0.00,,,0.00,Wunderground v.1.15,2013-07-04 23:55:00,
2013-07-04 17:00:00,95.4,59.1,29.67,West,273,1.0,3.0,30,0.00,,,0.00,Wunderground v.1.15,2013-07-05 00:00:00,
2013-07-04 17:10:00,94.2,58.9,29.67,NNW,331,2.0,2.0,31,0.00,,,0.00,Wunderground v.1.15,2013-07-05 00:10:00,
2013-07-04 17:15:00,93.7,58.5,29.67,NNW,335,3.0,3.0,31,0.00,,,0.00,Wunderground v.1.15,2013-07-05 00:15:00,
2013-07-04 17:20:00,92.8,57.7,29.67,WNW,293,3.0,3.0,31,0.00,,,0.00,Wunderground v.1.15,2013-07-05 00:20:00,
2013-07-04 17:25:00,93.0,57.9,29.67,WNW,288,2.0,3.0,31,0.00,,,0.00,Wunderground v.1.15,2013-07-05 00:25:00,
2013-07-04 17:30:00,93.2,58.1,29.67,West,276,1.0,1.0,31,0.00,,,0.00,Wunderground v.1.15,2013-07-05 00:30:00,
2013-07-04 17:40:00,93.3,57.2,29.66,SSE,164,1.0,2.0,30,0.00,,,0.00,Wunderground v.1.15,2013-07-05 00:40:00,
2013-07-04 17:45:00,93.4,57.3,29.66,SSW,200,1.0,2.0,30,0.00,,,0.00,Wunderground v.1.15,2013-07-05 00:45:00,
2013-07-04 17:50:00,93.1,57.1,29.66,NW,325,1.0,1.0,30,0.00,,,0.00,Wunderground v.1.15,2013-07-05 00:50:00,
2013-07-04 17:55:00,92.7,56.7,29.66,NW,323,2.0,2.0,30,0.00,,,0.00,Wunderground v.1.15,2013-07-05 00:55:00,
2013-07-04 18:05:00,91.9,56.0,29.66,NW,306,2.0,3.0,30,0.00,,,0.00,Wunderground v.1.15,2013-07-05 01:05:00,
2013-07-04 18:10:00,91.7,55.9,29.66,NW,311,1.0,2.0,30,0.00,,,0.00,Wunderground v.1.15,2013-07-05 01:10:00,
2013-07-04 18:15:00,91.4,55.6,29.66,West,271,2.0,2.0,30,0.00,,,0.00,Wunderground v.1.15,2013-07-05 01:15:00,
2013-07-04 18:25:00,91.1,55.3,29.66,NW,318,1.0,2.0,30,0.00,,,0.00,Wunderground v.1.15,2013-07-05 01:25:00,
2013-07-04 18:35:00,90.2,55.5,29.66,ENE,78,1.0,3.0,31,0.00,,,0.00,Wunderground v.1.15,2013-07-05 01:35:00,
2013-07-04 18:40:00,90.0,55.3,29.66,West,261,0.0,0.0,31,0.00,,,0.00,Wunderground v.1.15,2013-07-05 01:40:00,
2013-07-04 18:45:00,89.9,55.2,29.66,West,259,0.0,0.0,31,0.00,,,0.00,Wunderground v.1.15,2013-07-05 01:45:00,
2013-07-04 18:50:00,89.7,55.0,29.66,WNW,292,0.0,0.0,31,0.00,,,0.00,Wunderground v.1.15,2013-07-05 01:50:00,
2013-07-04 18:55:00,89.3,55.6,29.66,West,262,0.0,0.0,32,0.00,,,0.00,Wunderground v.1.15,2013-07-05 01:55:00,
2013-07-04 19:05:00,88.4,53.9,29.66,NW,304,1.0,5.0,31,0.00,,,0.00,Wunderground v.1.15,2013-07-05 02:05:00,
2013-07-04 19:10:00,87.5,53.1,29.66,WSW,257,1.0,2.0,31,0.00,,,0.00,Wunderground v.1.15,2013-07-05 02:10:00,
2013-07-04 19:15:00,86.6,53.2,29.66,NW,306,1.0,2.0,32,0.00,,,0.00,Wunderground v.1.15,2013-07-05 02:15:00,
2013-07-04 19:20:00,85.7,53.3,29.66,NW,309,1.0,1.0,33,0.00,,,0.00,Wunderground v.1.15,2013-07-05 02:20:00,
2013-07-04 19:30:00,84.1,52.7,29.66,WSW,246,1.0,1.0,34,0.00,,,0.00,Wunderground v.1.15,2013-07-05 02:30:00,
2013-07-04 19:35:00,83.6,53.1,29.66,NW,323,1.0,1.0,35,0.00,,,0.00,Wunderground v.1.15,2013-07-05 02:35:00,
2013-07-04 19:45:00,83.0,52.5,29.66,NW,313,1.0,3.0,35,0.00,,,0.00,Wunderground v.1.15,2013-07-05 02:45:00,
2013-07-04 19:50:00,82.8,53.1,29.67,South,169,1.0,1.0,36,0.00,,,0.00,Wunderground v.1.15,2013-07-05 02:50:00,
2013-07-04 19:55:00,82.6,52.9,29.67,West,273,1.0,1.0,36,0.00,,,0.00,Wunderground v.1.15,2013-07-05 02:55:00,
2013-07-04 20:05:00,82.3,52.7,29.67,West,281,1.0,2.0,36,0.00,,,0.00,Wunderground v.1.15,2013-07-05 03:05:00,
2013-07-04 20:10:00,82.1,52.5,29.67,NNW,333,1.0,1.0,36,0.00,,,0.00,Wunderground v.1.15,2013-07-05 03:10:00,
2013-07-04 20:15:00,82.1,52.5,29.67,West,274,1.0,1.0,36,0.00,,,0.00,Wunderground v.1.15,2013-07-05 03:15:00,
2013-07-04 20:20:00,82.0,51.6,29.67,NW,304,1.0,1.0,35,0.00,,,0.00,Wunderground v.1.15,2013-07-05 03:20:00,
2013-07-04 20:25:00,81.7,51.4,29.67,NNW,343,1.0,1.0,35,0.00,,,0.00,Wunderground v.1.15,2013-07-05 03:25:00,
2013-07-04 20:35:00,81.1,50.9,29.68,NW,318,0.0,1.0,35,0.00,,,0.00,Wunderground v.1.15,2013-07-05 03:35:00,
2013-07-04 20:40:00,80.9,51.4,29.68,West,277,0.0,1.0,36,0.00,,,0.00,Wunderground v.1.15,2013-07-05 03:40:00,
2013-07-04 20:45:00,80.6,50.4,29.68,WNW,298,0.0,2.0,35,0.00,,,0.00,Wunderground v.1.15,2013-07-05 03:45:00,
2013-07-04 20:50:00,80.4,50.2,29.68,NNW,341,0.0,0.0,35,0.00,,,0.00,Wunderground v.1.15,2013-07-05 03:50:00,
2013-07-04 21:00:00,80.2,49.3,29.68,SW,230,0.0,0.0,34,0.00,,,0.00,Wunderground v.1.15,2013-07-05 04:00:00,
2013-07-04 21:05:00,80.1,49.2,29.68,NNW,328,0.0,0.0,34,0.00,,,0.00,Wunderground v.1.15,2013-07-05 04:05:00,
2013-07-04 21:10:00,79.8,48.9,29.68,NNW,328,0.0,0.0,34,0.00,,,0.00,Wunderground v.1.15,2013-07-05 04:10:00,
2013-07-04 21:15:00,79.5,49.4,29.68,NNW,329,0.0,0.0,35,0.00,,,0.00,Wunderground v.1.15,2013-07-05 04:15:00,
2013-07-04 21:25:00,78.7,48.7,29.69,WSW,240,0.0,0.0,35,0.00,,,0.00,Wunderground v.1.15,2013-07-05 04:25:00,
2013-07-04 21:30:00,78.4,48.5,29.69,NNE,29,0.0,0.0,35,0.00,,,0.00,Wunderground v.1.15,2013-07-05 04:30:00,
2013-07-04 21:35:00,78.2,48.3,29.69,NE,36,0.0,0.0,35,0.00,,,0.00,Wunderground v.1.15,2013-07-05 04:35:00,
2013-07-04 21:40:00,77.9,48.8,29.69,NE,34,0.0,0.0,36,0.00,,,0.00,Wunderground v.1.15,2013-07-05 04:40:00,
2013-07-04 21:45:00,77.5,48.4,29.69,NE,34,0.0,0.0,36,0.00,,,0.00,Wunderground v.1.15,2013-07-05 04:45:00,
2013-07-04 21:50:00,77.0,48.7,29.69,NW,306,0.0,0.0,37,0.00,,,0.00,Wunderground v.1.15,2013-07-05 04:50:00,
2013-07-04 21:55:00,76.7,48.5,29.69,NW,306,0.0,0.0,37,0.00,,,0.00,Wunderground v.1.15,2013-07-05 04:55:00,
2013-07-04 22:00:00,76.5,48.3,29.69,NW,306,0.0,0.0,37,0.00,,,0.00,Wunderground v.1.15,2013-07-05 05:00:00,
2013-07-04 22:10:00,75.9,48.5,29.69,WNW,303,0.0,0.0,38,0.00,,,0.00,Wunderground v.1.15,2013-07-05 05:10:00,
2013-07-04 22:15:00,76.0,48.6,29.69,NW,307,0.0,0.0,38,0.00,,,0.00,Wunderground v.1.15,2013-07-05 05:15:00,
2013-07-04 22:25:00,75.7,48.3,29.69,NW,306,0.0,0.0,38,0.00,,,0.00,Wunderground v.1.15,2013-07-05 05:25:00,
2013-07-04 22:30:00,75.5,48.8,29.69,NW,306,0.0,0.0,39,0.00,,,0.00,Wunderground v.1.15,2013-07-05 05:30:00,
2013-07-04 22:35:00,75.1,48.4,29.69,NW,306,0.0,0.0,39,0.00,,,0.00,Wunderground v.1.15,2013-07-05 05:35:00,
2013-07-04 22:40:00,74.5,47.9,29.69,NW,306,0.0,0.0,39,0.00,,,0.00,Wunderground v.1.15,2013-07-05 05:40:00,
2013-07-04 22:50:00,73.6,48.4,29.70,NW,306,0.0,0.0,41,0.00,,,0.00,Wunderground v.1.15,2013-07-05 05:50:00,
2013-07-04 22:55:00,73.3,48.2,29.70,NW,306,0.0,0.0,41,0.00,,,0.00,Wunderground v.1.15,2013-07-05 05:55:00,
2013-07-04 23:00:00,73.0,47.9,29.69,NW,320,0.0,0.0,41,0.00,,,0.00,Wunderground v.1.15,2013-07-05 06:00:00,
2013-07-04 23:05:00,73.0,48.5,29.69,NW,320,0.0,0.0,42,0.00,,,0.00,Wunderground v.1.15,2013-07-05 06:05:00,
2013-07-04 23:15:00,72.6,48.8,29.69,NW,320,0.0,0.0,43,0.00,,,0.00,Wunderground v.1.15,2013-07-05 06:15:00,
2013-07-04 23:20:00,72.1,50.2,29.70,North,5,0.0,0.0,46,0.00,,,0.00,Wunderground v.1.15,2013-07-05 06:20:00,
2013-07-04 23:30:00,71.2,49.4,29.70,North,5,0.0,0.0,46,0.00,,,0.00,Wunderground v.1.15,2013-07-05 06:30:00,
2013-07-04 23:35:00,70.8,49.6,29.70,North,5,0.0,0.0,47,0.00,,,0.00,Wunderground v.1.15,2013-07-05 06:35:00,
2013-07-04 23:40:00,70.2,51.2,29.70,North,5,0.0,0.0,51,0.00,,,0.00,Wunderground v.1.15,2013-07-05 06:40:00,
2013-07-04 23:45:00,69.5,50.6,29.70,North,5,0.0,0.0,51,0.00,,,0.00,Wunderground v.1.15,2013-07-05 06:45:00,
2013-07-04 23:50:00,69.1,50.7,29.70,West,273,0.0,0.0,52,0.00,,,0.00,Wunderground v.1.15,2013-07-05 06:50:00,
2013-07-04 23:55:00,68.8,51.0,29.70,SSE,154,0.0,0.0,53,0.00,,,0.00,Wunderground v.1.15,2013-07-05 06:55:00,